Location: Caltech
(34.1382°N, 118.1253°W)
Time: 00:07:04
(UTC-08:00)

CZ-4B DEB - Visible Passes

Search period start: 24 February 2017 00:00
Search period end: 06 March 2017 00:00
Orbit: 841 x 863 km, 99.0° (Epoch: 22 February)

Date Brightness Start Highest point End Pass type
(mag) Time Alt. Az. Time Alt. Az. Time Alt. Az.
24 Feb 5.5 03:53:18 10° N 03:56:02 30° N 03:56:02 30° N visible
25 Feb 5.6 03:41:51 10° NNE 03:44:37 31° NNE 03:44:37 31° NNE visible
25 Feb 6.0 05:25:21 10° NW 05:26:40 12° NW 05:26:40 12° NW visible
26 Feb 5.8 03:30:29 10° NNE 03:33:13 30° NNE 03:33:13 30° NNE visible
26 Feb 5.8 05:12:56 10° NNW 05:15:15 15° NW 05:15:15 15° NW visible
27 Feb 6.0 03:19:10 10° NNE 03:21:48 27° NE 03:21:48 27° NE visible
27 Feb 5.6 05:00:54 10° NNW 05:03:51 19° NW 05:03:51 19° NW visible
28 Feb 6.2 03:07:55 10° NNE 03:10:24 24° NE 03:10:24 24° NE visible
28 Feb 5.4 04:49:02 10° NNW 04:52:27 24° NW 04:52:27 24° NW visible
01 Mar 6.4 02:56:46 10° NE 02:59:00 21° ENE 02:59:00 21° ENE visible
01 Mar 5.2 04:37:17 10° N 04:41:02 29° NW 04:41:02 29° NW visible
02 Mar 6.7 02:45:44 10° NE 02:47:35 17° ENE 02:47:35 17° ENE visible
02 Mar 4.9 04:25:37 10° N 04:29:38 36° NW 04:29:38 36° NW visible
03 Mar 6.9 02:34:54 10° NE 02:36:11 14° ENE 02:36:11 14° ENE visible
03 Mar 4.7 04:14:01 10° N 04:18:14 44° NW 04:18:14 44° NW visible
04 Mar 7.1 02:24:25 10° ENE 02:24:47 11° ENE 02:24:47 11° ENE visible
04 Mar 4.5 04:02:28 10° N 04:06:50 53° NNW 04:06:50 53° NNW visible
05 Mar 4.5 03:50:59 10° NNE 03:55:25 58° N 03:55:25 58° N visible
